Time,TemperatureF,DewpointF,PressureIn,WindDirection,WindDirectionDegrees,WindSpeedMPH,WindSpeedGustMPH,Humidity,HourlyPrecipIn,Conditions,Clouds,dailyrainin,SoftwareType,DateUTC
2013-02-12 00:00:00,47.1,39.2,30.03,NE,47,0.0,1.0,74,0.00,,BKN080,0.00,VWS V14.01,2013-02-12 06:00:00,
2013-02-12 00:05:00,47.0,39.2,30.02,NE,46,0.0,0.0,74,0.00,,BKN080,0.00,VWS V14.01,2013-02-12 06:05:00,
2013-02-12 00:18:00,46.9,39.1,30.02,NE,36,0.0,0.0,74,0.00,,BKN080,0.00,VWS V14.01,2013-02-12 06:18:00,
2013-02-12 00:23:00,46.6,39.1,30.01,ENE,58,0.0,0.0,75,0.00,,BKN080,0.00,VWS V14.01,2013-02-12 06:23:00,
2013-02-12 00:28:00,46.4,38.9,30.01,NE,49,0.0,0.0,75,0.00,,BKN080,0.00,VWS V14.01,2013-02-12 06:28:00,
2013-02-12 00:33:00,46.3,38.8,30.01,NE,36,0.0,0.0,75,0.00,,BKN080,0.00,VWS V14.01,2013-02-12 06:33:00,
2013-02-12 00:38:00,46.3,39.2,30.01,NE,44,0.0,0.0,76,0.00,,BKN080,0.00,VWS V14.01,2013-02-12 06:38:00,
2013-02-12 00:43:00,46.3,39.2,30.00,NNE,24,0.0,0.0,76,0.00,,BKN080,0.00,VWS V14.01,2013-02-12 06:43:00,
2013-02-12 00:49:00,46.4,39.3,29.99,ENE,62,0.0,1.0,76,0.00,,BKN080,0.00,VWS V14.01,2013-02-12 06:49:00,
2013-02-12 00:54:00,46.5,39.4,29.99,NE,34,0.0,0.0,76,0.00,,BKN080,0.00,VWS V14.01,2013-02-12 06:54:00,
2013-02-12 00:59:00,46.5,39.4,29.99,NE,44,0.0,0.0,76,0.00,,BKN080,0.00,VWS V14.01,2013-02-12 06:59:00,
2013-02-12 01:04:00,46.7,39.5,29.98,NE,49,0.0,1.0,76,0.00,,BKN250,0.00,VWS V14.01,2013-02-12 07:04:00,
2013-02-12 01:09:00,46.9,39.7,29.98,NE,53,0.0,0.0,76,0.00,,BKN250,0.00,VWS V14.01,2013-02-12 07:09:00,
2013-02-12 01:14:00,47.3,39.8,30.00,ENE,61,0.0,5.0,75,0.00,,BKN250,0.00,VWS V14.01,2013-02-12 07:14:00,
2013-02-12 01:19:00,47.5,40.0,30.03,SSE,165,0.0,0.0,75,0.00,,BKN250,0.00,VWS V14.01,2013-02-12 07:19:00,
2013-02-12 01:24:00,47.6,40.1,30.00,NE,50,0.0,0.0,75,0.00,,BKN250,0.00,VWS V14.01,2013-02-12 07:24:00,
2013-02-12 01:29:00,47.7,40.2,29.95,NE,38,0.0,4.0,75,0.00,,BKN250,0.00,VWS V14.01,2013-02-12 07:29:00,
2013-02-12 01:34:00,47.6,40.4,29.97,NE,40,0.0,0.0,76,0.00,,BKN250,0.00,VWS V14.01,2013-02-12 07:34:00,
2013-02-12 01:39:00,47.6,40.4,29.97,NE,55,0.0,0.0,76,0.00,,BKN250,0.00,VWS V14.01,2013-02-12 07:39:00,
2013-02-12 01:44:00,47.4,40.2,29.98,NE,55,0.0,0.0,76,0.00,,BKN250,0.00,VWS V14.01,2013-02-12 07:44:00,
2013-02-12 01:49:00,47.2,40.4,30.00,South,172,0.0,1.0,77,0.00,,BKN250,0.00,VWS V14.01,2013-02-12 07:49:00,
2013-02-12 01:54:00,47.2,40.4,30.02,South,186,0.0,3.0,77,0.00,,BKN250,0.00,VWS V14.01,2013-02-12 07:54:00,
2013-02-12 01:59:00,47.4,40.6,30.02,ESE,115,0.0,0.0,77,0.00,,BKN250,0.00,VWS V14.01,2013-02-12 07:59:00,
2013-02-12 02:04:00,47.5,40.7,30.04,SW,230,0.0,0.0,77,0.00,,BKN250,0.00,VWS V14.01,2013-02-12 08:04:00,
2013-02-12 02:09:00,47.5,40.7,30.04,West,268,0.0,0.0,77,0.00,,BKN250,0.00,VWS V14.01,2013-02-12 08:09:00,
2013-02-12 02:14:00,47.6,41.1,30.04,West,268,0.0,0.0,78,0.00,,BKN250,0.00,VWS V14.01,2013-02-12 08:14:00,
2013-02-12 02:19:00,47.7,40.8,30.03,NNW,333,0.0,0.0,77,0.00,,BKN250,0.00,VWS V14.01,2013-02-12 08:19:00,
2013-02-12 02:24:00,47.9,41.0,30.02,NE,49,0.0,0.0,77,0.00,,BKN250,0.00,VWS V14.01,2013-02-12 08:24:00,
2013-02-12 02:29:00,48.1,41.6,30.02,NE,47,0.0,0.0,78,0.00,,BKN250,0.00,VWS V14.01,2013-02-12 08:29:00,
2013-02-12 02:34:00,48.2,41.3,30.02,NW,317,0.0,0.0,77,0.00,,BKN250,0.00,VWS V14.01,2013-02-12 08:34:00,
2013-02-12 02:39:00,48.2,41.3,30.02,NE,55,0.0,0.0,77,0.00,,BKN250,0.00,VWS V14.01,2013-02-12 08:39:00,
2013-02-12 02:44:00,48.3,41.8,30.02,NE,53,0.0,0.0,78,0.00,,BKN250,0.00,VWS V14.01,2013-02-12 08:44:00,
2013-02-12 02:49:00,48.4,41.9,30.00,NE,42,1.0,2.0,78,0.00,,BKN250,0.00,VWS V14.01,2013-02-12 08:49:00,
2013-02-12 02:54:00,48.4,41.9,30.00,NE,47,0.0,7.0,78,0.00,,BKN250,0.00,VWS V14.01,2013-02-12 08:54:00,
2013-02-12 02:59:00,48.4,41.9,30.00,SE,142,0.0,0.0,78,0.00,,BKN250,0.00,VWS V14.01,2013-02-12 08:59:00,
2013-02-12 03:04:00,48.4,41.9,29.99,NE,53,0.0,3.0,78,0.00,,OVC190,0.00,VWS V14.01,2013-02-12 09:04:00,
2013-02-12 03:09:00,48.3,42.1,29.99,NE,49,0.0,1.0,79,0.00,,OVC190,0.00,VWS V14.01,2013-02-12 09:09:00,
2013-02-12 03:14:00,48.2,42.0,29.99,NE,44,0.0,2.0,79,0.00,,OVC190,0.00,VWS V14.01,2013-02-12 09:14:00,
2013-02-12 03:19:00,48.1,42.2,29.99,NE,47,0.0,2.0,80,0.00,,OVC190,0.00,VWS V14.01,2013-02-12 09:19:00,
2013-02-12 03:24:00,48.0,42.5,29.98,East,92,0.0,1.0,81,0.00,,OVC190,0.00,VWS V14.01,2013-02-12 09:24:00,
2013-02-12 03:29:00,47.9,42.4,29.97,NNE,30,0.0,0.0,81,0.00,,OVC190,0.00,VWS V14.01,2013-02-12 09:29:00,
2013-02-12 03:34:00,47.9,42.4,29.98,NE,47,0.0,3.0,81,0.00,,OVC190,0.00,VWS V14.01,2013-02-12 09:34:00,
2013-02-12 03:39:00,47.8,42.6,29.98,NNE,31,0.0,1.0,82,0.00,,OVC190,0.00,VWS V14.01,2013-02-12 09:39:00,
2013-02-12 03:44:00,47.7,42.5,29.98,NE,49,0.0,1.0,82,0.00,,OVC190,0.00,VWS V14.01,2013-02-12 09:44:00,
2013-02-12 03:49:00,47.6,42.7,29.98,NE,40,0.0,1.0,83,0.00,,OVC190,0.00,VWS V14.01,2013-02-12 09:49:00,
2013-02-12 03:54:00,47.5,42.6,29.98,NNE,32,0.0,1.0,83,0.00,,OVC190,0.00,VWS V14.01,2013-02-12 09:54:00,
2013-02-12 03:59:00,47.4,42.8,29.97,NE,47,0.0,2.0,84,0.00,,OVC190,0.00,VWS V14.01,2013-02-12 09:59:00,
2013-02-12 04:04:00,47.3,43.0,29.97,ENE,66,0.0,1.0,85,0.00,,-RA,0.00,VWS V14.01,2013-02-12 10:04:00,
2013-02-12 04:09:00,47.1,42.8,29.96,NE,40,1.0,2.0,85,0.00,,-RA,0.00,VWS V14.01,2013-02-12 10:09:00,
2013-02-12 04:14:00,47.0,43.0,29.95,ENE,67,0.0,2.0,86,0.00,,-RA,0.00,VWS V14.01,2013-02-12 10:14:00,
2013-02-12 04:19:00,46.9,43.2,29.94,NE,36,0.0,1.0,87,0.00,,-RA,0.00,VWS V14.01,2013-02-12 10:19:00,
2013-02-12 04:24:00,46.9,43.2,29.93,NE,36,0.0,3.0,87,0.00,,-RA,0.00,VWS V14.01,2013-02-12 10:24:00,
2013-02-12 04:29:00,46.9,43.2,29.94,NE,49,0.0,5.0,87,0.00,,-RA,0.00,VWS V14.01,2013-02-12 10:29:00,
2013-02-12 04:34:00,47.0,43.3,29.94,NE,40,0.0,0.0,87,0.00,,-RA,0.00,VWS V14.01,2013-02-12 10:34:00,
2013-02-12 04:39:00,47.0,43.3,29.94,NE,35,1.0,3.0,87,0.00,,-RA,0.00,VWS V14.01,2013-02-12 10:39:00,
2013-02-12 04:44:00,47.0,43.3,29.95,NNE,24,0.0,1.0,87,0.00,,-RA,0.00,VWS V14.01,2013-02-12 10:44:00,
2013-02-12 04:49:00,46.9,43.2,29.96,NE,50,0.0,1.0,87,0.01,,-RA,0.01,VWS V14.01,2013-02-12 10:49:00,
2013-02-12 04:54:00,46.6,43.2,29.95,NE,44,0.0,0.0,88,0.02,,-RA,0.02,VWS V14.01,2013-02-12 10:54:00,
2013-02-12 04:59:00,46.4,43.3,29.93,NNE,15,0.0,3.0,89,0.05,,-RA,0.05,VWS V14.01,2013-02-12 10:59:00,
2013-02-12 05:04:00,46.1,43.3,29.92,NE,34,1.0,7.0,90,0.07,,RA,0.07,VWS V14.01,2013-02-12 11:04:00,
2013-02-12 05:09:00,45.9,43.4,29.92,NE,39,0.0,4.0,91,0.07,,RA,0.07,VWS V14.01,2013-02-12 11:09:00,
2013-02-12 05:14:00,45.8,43.3,29.90,ENE,57,0.0,6.0,91,0.07,,RA,0.07,VWS V14.01,2013-02-12 11:14:00,
2013-02-12 05:19:00,45.7,43.5,29.89,NW,323,0.0,3.0,92,0.08,,RA,0.08,VWS V14.01,2013-02-12 11:19:00,
2013-02-12 05:24:00,45.6,43.4,29.90,NNW,346,0.0,1.0,92,0.08,,RA,0.08,VWS V14.01,2013-02-12 11:24:00,
2013-02-12 05:29:00,45.5,43.3,29.91,NE,42,0.0,1.0,92,0.08,,RA,0.08,VWS V14.01,2013-02-12 11:29:00,
2013-02-12 05:34:00,45.4,43.2,29.91,NE,46,2.0,4.0,92,0.08,,RA,0.08,VWS V14.01,2013-02-12 11:34:00,
2013-02-12 05:39:00,45.4,43.2,29.91,NNE,19,0.0,4.0,92,0.08,,RA,0.08,VWS V14.01,2013-02-12 11:39:00,
2013-02-12 05:44:00,45.3,42.8,29.91,NE,43,1.0,4.0,91,0.08,,RA,0.08,VWS V14.01,2013-02-12 11:44:00,
2013-02-12 05:49:00,45.3,43.1,29.91,NNE,20,0.0,3.0,92,0.07,,RA,0.08,VWS V14.01,2013-02-12 11:49:00,
2013-02-12 05:54:00,45.3,43.1,29.94,NNE,22,0.0,0.0,92,0.07,,RA,0.09,VWS V14.01,2013-02-12 11:54:00,
2013-02-12 05:59:00,45.3,43.1,29.93,NNE,13,0.0,0.0,92,0.07,,RA,0.10,VWS V14.01,2013-02-12 11:59:00,
2013-02-12 06:04:00,45.3,43.4,29.94,SW,214,0.0,1.0,93,0.06,, +RA,0.12,VWS V14.01,2013-02-12 12:04:00,
2013-02-12 06:09:00,45.2,43.3,29.92,NE,47,3.0,4.0,93,0.06,, +RA,0.13,VWS V14.01,2013-02-12 12:09:00,
2013-02-12 06:14:00,45.2,43.3,29.91,NE,42,4.0,4.0,93,0.07,, +RA,0.14,VWS V14.01,2013-02-12 12:14:00,
2013-02-12 06:19:00,45.2,43.3,29.91,NE,47,0.0,4.0,93,0.08,, +RA,0.15,VWS V14.01,2013-02-12 12:19:00,
2013-02-12 06:24:00,45.1,43.2,29.92,SE,134,0.0,1.0,93,0.07,, +RA,0.15,VWS V14.01,2013-02-12 12:24:00,
2013-02-12 06:29:00,45.1,43.2,29.90,NE,38,1.0,4.0,93,0.07,, +RA,0.15,VWS V14.01,2013-02-12 12:29:00,
2013-02-12 06:34:00,45.1,43.2,29.90,NE,38,1.0,4.0,93,0.07,, +RA,0.15,VWS V14.01,2013-02-12 12:34:00,
2013-02-12 06:39:00,45.1,43.2,29.89,NE,40,0.0,4.0,93,0.08,, +RA,0.16,VWS V14.01,2013-02-12 12:39:00,
2013-02-12 06:44:00,45.1,43.2,29.91,NE,38,0.0,2.0,93,0.08,, +RA,0.16,VWS V14.01,2013-02-12 12:44:00,
2013-02-12 06:49:00,45.1,43.2,29.90,NE,40,3.0,3.0,93,0.08,, +RA,0.16,VWS V14.01,2013-02-12 12:49:00,
2013-02-12 06:54:00,45.1,43.5,29.90,NE,50,0.0,2.0,94,0.07,, +RA,0.16,VWS V14.01,2013-02-12 12:54:00,
2013-02-12 06:59:00,45.1,43.5,29.90,NE,42,1.0,2.0,94,0.07,, +RA,0.16,VWS V14.01,2013-02-12 12:59:00,
2013-02-12 07:04:00,45.1,43.5,29.90,SW,219,0.0,2.0,94,0.05,,OVC021,0.16,VWS V14.01,2013-02-12 13:04:00,
2013-02-12 07:09:00,45.2,43.6,29.90,NE,42,1.0,3.0,94,0.04,,OVC021,0.16,VWS V14.01,2013-02-12 13:09:00,
2013-02-12 07:14:00,45.3,43.7,29.89,NE,34,0.0,3.0,94,0.02,,OVC021,0.16,VWS V14.01,2013-02-12 13:14:00,
2013-02-12 07:19:00,45.4,43.8,29.90,NE,49,0.0,3.0,94,0.02,,OVC021,0.16,VWS V14.01,2013-02-12 13:19:00,
2013-02-12 07:25:00,45.4,43.5,29.90,NNE,17,1.0,2.0,93,0.02,,OVC021,0.17,VWS V14.01,2013-02-12 13:25:00,
2013-02-12 07:30:00,45.5,43.6,29.91,NE,47,2.0,2.0,93,0.02,,OVC021,0.17,VWS V14.01,2013-02-12 13:30:00,
2013-02-12 07:34:00,45.6,43.7,29.90,ENE,69,0.0,4.0,93,0.03,,OVC021,0.18,VWS V14.01,2013-02-12 13:34:00,
2013-02-12 07:39:00,45.6,43.7,29.91,NE,39,2.0,2.0,93,0.03,,OVC021,0.18,VWS V14.01,2013-02-12 13:39:00,
2013-02-12 07:44:00,45.6,43.7,29.91,NE,44,0.0,3.0,93,0.02,,OVC021,0.18,VWS V14.01,2013-02-12 13:44:00,
2013-02-12 07:50:00,45.7,43.8,29.91,NE,40,2.0,4.0,93,0.02,,OVC021,0.18,VWS V14.01,2013-02-12 13:50:00,
2013-02-12 07:55:00,45.8,43.9,29.91,NE,47,1.0,5.0,93,0.02,,OVC021,0.18,VWS V14.01,2013-02-12 13:55:00,
2013-02-12 08:00:00,45.9,44.0,29.90,WNW,302,0.0,4.0,93,0.02,,OVC021,0.18,VWS V14.01,2013-02-12 14:00:00,
2013-02-12 08:05:00,46.0,44.1,29.90,NNE,32,3.0,4.0,93,0.02,,OVC150,0.18,VWS V14.01,2013-02-12 14:05:00,
2013-02-12 08:10:00,45.9,44.0,29.90,NE,47,1.0,5.0,93,0.02,,OVC150,0.18,VWS V14.01,2013-02-12 14:10:00,
2013-02-12 08:15:00,45.9,44.0,29.91,NNE,31,0.0,5.0,93,0.02,,OVC150,0.18,VWS V14.01,2013-02-12 14:15:00,
2013-02-12 08:20:00,45.9,44.0,29.90,NNE,32,3.0,6.0,93,0.03,,OVC150,0.19,VWS V14.01,2013-02-12 14:20:00,
2013-02-12 08:25:00,45.9,44.0,29.91,NNE,32,3.0,4.0,93,0.03,,OVC150,0.19,VWS V14.01,2013-02-12 14:25:00,
2013-02-12 08:30:00,45.9,44.0,29.91,North,350,1.0,4.0,93,0.03,,OVC150,0.20,VWS V14.01,2013-02-12 14:30:00,
2013-02-12 08:35:00,45.9,44.0,29.92,NE,35,0.0,2.0,93,0.03,,OVC150,0.20,VWS V14.01,2013-02-12 14:35:00,
2013-02-12 08:40:00,45.9,44.3,29.94,WNW,283,0.0,1.0,94,0.04,,OVC150,0.22,VWS V14.01,2013-02-12 14:40:00,
2013-02-12 08:45:00,46.0,44.4,29.92,ENE,57,1.0,3.0,94,0.05,,OVC150,0.23,VWS V14.01,2013-02-12 14:45:00,
2013-02-12 08:50:00,45.9,44.3,29.92,NNW,344,0.0,4.0,94,0.07,,OVC150,0.25,VWS V14.01,2013-02-12 14:50:00,
2013-02-12 08:55:00,45.8,44.2,29.92,NE,40,3.0,4.0,94,0.08,,OVC150,0.26,VWS V14.01,2013-02-12 14:55:00,
2013-02-12 09:00:00,45.9,44.3,29.92,NNE,24,0.0,2.0,94,0.08,,OVC150,0.26,VWS V14.01,2013-02-12 15:00:00,
2013-02-12 09:05:00,45.9,44.3,29.94,NNW,347,0.0,1.0,94,0.09,,RA,0.27,VWS V14.01,2013-02-12 15:05:00,
2013-02-12 09:10:00,45.9,44.3,29.93,NE,36,0.0,1.0,94,0.09,,RA,0.27,VWS V14.01,2013-02-12 15:10:00,
2013-02-12 09:15:00,45.9,44.5,29.94,NE,36,0.0,1.0,95,0.09,,RA,0.27,VWS V14.01,2013-02-12 15:15:00,
2013-02-12 09:20:00,45.9,44.5,29.93,NE,44,1.0,2.0,95,0.09,,RA,0.27,VWS V14.01,2013-02-12 15:20:00,
2013-02-12 09:25:00,45.8,44.5,29.93,North,5,0.0,2.0,95,0.08,,RA,0.27,VWS V14.01,2013-02-12 15:25:00,
2013-02-12 09:30:00,45.9,44.5,29.93,NNW,335,2.0,2.0,95,0.09,,RA,0.28,VWS V14.01,2013-02-12 15:30:00,
2013-02-12 09:35:00,45.8,44.5,29.93,ENE,62,0.0,1.0,95,0.08,,RA,0.28,VWS V14.01,2013-02-12 15:35:00,
2013-02-12 09:40:00,45.9,44.5,29.94,NE,46,0.0,1.0,95,0.08,,RA,0.28,VWS V14.01,2013-02-12 15:40:00,
2013-02-12 09:45:00,45.9,44.5,29.93,NE,40,0.0,2.0,95,0.06,,RA,0.28,VWS V14.01,2013-02-12 15:45:00,
2013-02-12 09:50:00,45.8,44.5,29.93,NNW,346,2.0,2.0,95,0.05,,RA,0.28,VWS V14.01,2013-02-12 15:50:00,
2013-02-12 09:55:00,45.9,44.5,29.94,NE,51,1.0,2.0,95,0.03,,RA,0.28,VWS V14.01,2013-02-12 15:55:00,
2013-02-12 10:00:00,45.9,44.5,29.94,NNE,22,1.0,1.0,95,0.02,,RA,0.28,VWS V14.01,2013-02-12 16:00:00,
2013-02-12 10:05:00,46.0,44.7,29.95,NNW,333,0.0,1.0,95,0.02,,-RA,0.28,VWS V14.01,2013-02-12 16:05:00,
2013-02-12 10:10:00,45.9,44.5,29.95,NW,314,0.0,1.0,95,0.01,,-RA,0.28,VWS V14.01,2013-02-12 16:10:00,
2013-02-12 10:15:00,46.0,44.7,29.95,NE,39,0.0,1.0,95,0.01,,-RA,0.28,VWS V14.01,2013-02-12 16:15:00,
2013-02-12 10:20:00,46.0,44.7,29.95,NE,38,1.0,1.0,95,0.01,,-RA,0.28,VWS V14.01,2013-02-12 16:20:00,
2013-02-12 10:25:00,46.1,44.8,29.95,ENE,58,2.0,2.0,95,0.01,,-RA,0.28,VWS V14.01,2013-02-12 16:25:00,
2013-02-12 10:30:00,46.2,44.8,29.95,NE,40,1.0,1.0,95,0.01,,-RA,0.28,VWS V14.01,2013-02-12 16:30:00,
2013-02-12 10:35:00,46.2,44.8,29.95,NNW,344,0.0,3.0,95,0.00,,-RA,0.28,VWS V14.01,2013-02-12 16:35:00,
2013-02-12 10:40:00,46.3,45.0,29.94,NW,315,1.0,2.0,95,0.00,,-RA,0.28,VWS V14.01,2013-02-12 16:40:00,
2013-02-12 10:45:00,46.4,45.0,29.94,NE,49,1.0,2.0,95,0.00,,-RA,0.28,VWS V14.01,2013-02-12 16:45:00,
2013-02-12 10:50:00,46.5,45.2,29.94,NE,44,1.0,3.0,95,0.00,,-RA,0.28,VWS V14.01,2013-02-12 16:50:00,
2013-02-12 10:55:00,46.5,45.2,29.94,NE,34,0.0,2.0,95,0.00,,-RA,0.28,VWS V14.01,2013-02-12 16:55:00,
2013-02-12 11:00:00,46.6,45.2,29.94,NE,42,1.0,2.0,95,0.00,,-RA,0.28,VWS V14.01,2013-02-12 17:00:00,
2013-02-12 11:05:00,46.6,45.2,29.94,NE,43,0.0,3.0,95,0.00,,,0.28,VWS V14.01,2013-02-12 17:05:00,
2013-02-12 11:10:00,46.6,45.2,29.94,NNE,31,1.0,3.0,95,0.00,,,0.28,VWS V14.01,2013-02-12 17:10:00,
2013-02-12 11:15:00,46.6,45.2,29.94,NNE,13,2.0,3.0,95,0.00,,,0.28,VWS V14.01,2013-02-12 17:15:00,
2013-02-12 11:20:00,46.6,45.2,29.94,NNE,15,1.0,3.0,95,0.00,,,0.28,VWS V14.01,2013-02-12 17:20:00,
2013-02-12 11:25:00,46.6,45.0,29.93,NNE,20,2.0,4.0,94,0.00,,,0.28,VWS V14.01,2013-02-12 17:25:00,
2013-02-12 11:30:00,46.7,45.1,29.93,NNE,12,1.0,2.0,94,0.00,,,0.28,VWS V14.01,2013-02-12 17:30:00,
2013-02-12 11:35:00,46.8,45.2,29.93,NW,324,1.0,3.0,94,0.00,,,0.28,VWS V14.01,2013-02-12 17:35:00,
2013-02-12 11:40:00,46.9,45.3,29.93,NE,42,1.0,3.0,94,0.00,,,0.28,VWS V14.01,2013-02-12 17:40:00,
2013-02-12 11:45:00,46.8,44.9,29.93,NNE,20,2.0,4.0,93,0.00,,,0.28,VWS V14.01,2013-02-12 17:45:00,
2013-02-12 11:50:00,46.8,44.9,29.93,NE,44,1.0,3.0,93,0.00,,,0.28,VWS V14.01,2013-02-12 17:50:00,
2013-02-12 11:55:00,46.8,44.9,29.92,NE,55,2.0,3.0,93,0.00,,,0.28,VWS V14.01,2013-02-12 17:55:00,
2013-02-12 12:00:00,46.8,44.9,29.93,NE,40,0.0,3.0,93,0.00,,,0.28,VWS V14.01,2013-02-12 18:00:00,
2013-02-12 12:05:00,46.8,44.9,29.92,NE,55,2.0,3.0,93,0.00,,OVC008,0.28,VWS V14.01,2013-02-12 18:05:00,
2013-02-12 12:10:00,46.8,44.9,29.92,North,11,1.0,3.0,93,0.00,,OVC008,0.28,VWS V14.01,2013-02-12 18:10:00,
2013-02-12 12:15:00,46.8,44.9,29.92,NNE,24,2.0,4.0,93,0.00,,OVC008,0.28,VWS V14.01,2013-02-12 18:15:00,
2013-02-12 12:20:00,46.7,44.5,29.92,NNE,19,1.0,4.0,92,0.00,,OVC008,0.28,VWS V14.01,2013-02-12 18:20:00,
2013-02-12 12:25:00,46.7,44.5,29.92,NE,38,1.0,2.0,92,0.00,,OVC008,0.28,VWS V14.01,2013-02-12 18:25:00,
2013-02-12 12:30:00,46.8,44.6,29.91,NNE,24,2.0,4.0,92,0.00,,OVC008,0.28,VWS V14.01,2013-02-12 18:30:00,
2013-02-12 12:35:00,46.8,44.3,29.91,NE,49,1.0,4.0,91,0.00,,OVC008,0.28,VWS V14.01,2013-02-12 18:35:00,
2013-02-12 12:40:00,46.9,44.4,29.91,North,355,1.0,2.0,91,0.00,,OVC008,0.28,VWS V14.01,2013-02-12 18:40:00,
2013-02-12 12:45:00,47.1,44.6,29.91,NNE,29,1.0,3.0,91,0.00,,OVC008,0.28,VWS V14.01,2013-02-12 18:45:00,
2013-02-12 12:50:00,47.2,44.7,29.91,North,349,1.0,3.0,91,0.00,,OVC008,0.28,VWS V14.01,2013-02-12 18:50:00,
2013-02-12 12:55:00,47.3,44.8,29.90,NE,47,0.0,3.0,91,0.00,,OVC008,0.28,VWS V14.01,2013-02-12 18:55:00,
2013-02-12 13:00:00,47.4,44.6,29.90,NNW,348,0.0,3.0,90,0.00,,OVC008,0.28,VWS V14.01,2013-02-12 19:00:00,
2013-02-12 13:05:00,47.4,44.6,29.90,NE,43,1.0,4.0,90,0.00,,OVC008,0.28,VWS V14.01,2013-02-12 19:05:00,
2013-02-12 13:10:00,47.4,44.6,29.90,NE,42,0.0,3.0,90,0.00,,OVC008,0.28,VWS V14.01,2013-02-12 19:10:00,
2013-02-12 13:15:00,47.5,44.7,29.90,NE,40,0.0,3.0,90,0.00,,OVC008,0.28,VWS V14.01,2013-02-12 19:15:00,
2013-02-12 13:20:00,47.5,44.7,29.90,NNW,336,1.0,2.0,90,0.00,,OVC008,0.28,VWS V14.01,2013-02-12 19:20:00,
2013-02-12 13:25:00,47.6,44.8,29.89,NE,47,2.0,2.0,90,0.00,,OVC008,0.28,VWS V14.01,2013-02-12 19:25:00,
2013-02-12 13:30:00,47.7,44.9,29.89,NNW,338,1.0,2.0,90,0.00,,OVC008,0.28,VWS V14.01,2013-02-12 19:30:00,
2013-02-12 13:35:00,47.8,44.7,29.89,NW,319,0.0,2.0,89,0.00,,OVC008,0.28,VWS V14.01,2013-02-12 19:35:00,
2013-02-12 13:40:00,47.9,44.8,29.89,NW,317,0.0,2.0,89,0.00,,OVC008,0.28,VWS V14.01,2013-02-12 19:40:00,
2013-02-12 13:45:00,47.9,44.8,29.88,North,355,2.0,2.0,89,0.00,,OVC008,0.28,VWS V14.01,2013-02-12 19:45:00,
2013-02-12 13:50:00,47.9,44.8,29.88,NNE,26,1.0,2.0,89,0.00,,OVC008,0.28,VWS V14.01,2013-02-12 19:50:00,
2013-02-12 13:55:00,47.9,44.8,29.88,North,349,0.0,2.0,89,0.00,,OVC008,0.28,VWS V14.01,2013-02-12 19:55:00,
2013-02-12 14:00:00,47.9,45.1,29.87,NNE,31,1.0,2.0,90,0.00,,OVC007,0.28,VWS V14.01,2013-02-12 20:00:00,
2013-02-12 14:05:00,47.9,44.8,29.87,NE,49,1.0,2.0,89,0.00,,OVC007,0.28,VWS V14.01,2013-02-12 20:05:00,
2013-02-12 14:10:00,48.0,45.2,29.87,NNW,338,1.0,3.0,90,0.00,,OVC007,0.28,VWS V14.01,2013-02-12 20:10:00,
2013-02-12 14:15:00,48.0,44.9,29.87,NNE,13,0.0,3.0,89,0.00,,OVC007,0.28,VWS V14.01,2013-02-12 20:15:00,
2013-02-12 14:20:00,48.1,45.0,29.87,NNE,20,1.0,2.0,89,0.00,,OVC007,0.28,VWS V14.01,2013-02-12 20:20:00,
2013-02-12 14:25:00,48.1,45.0,29.87,NNE,30,3.0,5.0,89,0.00,,OVC007,0.28,VWS V14.01,2013-02-12 20:25:00,
2013-02-12 14:30:00,48.1,44.7,29.87,NNW,346,0.0,2.0,88,0.00,,OVC007,0.28,VWS V14.01,2013-02-12 20:30:00,
2013-02-12 14:35:00,48.2,45.1,29.87,NE,44,0.0,2.0,89,0.00,,OVC007,0.28,VWS V14.01,2013-02-12 20:35:00,
2013-02-12 14:40:00,48.3,45.2,29.87,North,11,0.0,3.0,89,0.00,,OVC007,0.28,VWS V14.01,2013-02-12 20:40:00,
2013-02-12 14:45:00,48.4,45.3,29.87,NNW,337,0.0,1.0,89,0.00,,OVC007,0.28,VWS V14.01,2013-02-12 20:45:00,
2013-02-12 14:50:00,48.3,45.2,29.87,NNW,333,0.0,4.0,89,0.00,,OVC007,0.28,VWS V14.01,2013-02-12 20:50:00,
2013-02-12 14:55:00,48.5,45.4,29.87,NNE,16,0.0,3.0,89,0.00,,OVC007,0.28,VWS V14.01,2013-02-12 20:55:00,
2013-02-12 15:00:00,48.5,45.1,29.87,WNW,294,0.0,2.0,88,0.00,,OVC008,0.28,VWS V14.01,2013-02-12 21:00:00,
2013-02-12 15:05:00,48.5,45.4,29.87,NNW,342,1.0,2.0,89,0.00,,OVC008,0.28,VWS V14.01,2013-02-12 21:05:00,
2013-02-12 15:10:00,48.4,45.0,29.87,NNE,17,2.0,2.0,88,0.00,,OVC008,0.28,VWS V14.01,2013-02-12 21:10:00,
2013-02-12 15:15:00,48.3,45.2,29.86,NW,323,2.0,3.0,89,0.00,,OVC008,0.28,VWS V14.01,2013-02-12 21:15:00,
2013-02-12 15:20:00,48.3,45.5,29.86,NW,326,2.0,2.0,90,0.00,,OVC008,0.28,VWS V14.01,2013-02-12 21:20:00,
2013-02-12 15:26:00,48.3,45.2,29.87,West,264,0.0,4.0,89,0.00,,OVC008,0.28,VWS V14.01,2013-02-12 21:26:00,
2013-02-12 15:31:00,48.1,45.0,29.88,North,11,2.0,3.0,89,0.00,,OVC008,0.28,VWS V14.01,2013-02-12 21:31:00,
2013-02-12 15:36:00,47.9,44.8,29.88,NNE,27,4.0,5.0,89,0.00,,OVC008,0.28,VWS V14.01,2013-02-12 21:36:00,
2013-02-12 15:41:00,47.8,44.7,29.88,West,280,0.0,3.0,89,0.00,,OVC008,0.28,VWS V14.01,2013-02-12 21:41:00,
2013-02-12 15:46:00,47.8,45.0,29.88,North,355,0.0,1.0,90,0.00,,OVC008,0.28,VWS V14.01,2013-02-12 21:46:00,
2013-02-12 15:51:00,47.8,45.0,29.89,NW,313,0.0,1.0,90,0.00,,OVC008,0.28,VWS V14.01,2013-02-12 21:51:00,
2013-02-12 15:56:00,47.9,45.4,29.89,NW,313,0.0,0.0,91,0.00,,OVC008,0.28,VWS V14.01,2013-02-12 21:56:00,
2013-02-12 16:01:00,48.1,45.6,29.89,West,281,0.0,1.0,91,0.00,,OVC008,0.28,VWS V14.01,2013-02-12 22:01:00,
2013-02-12 16:06:00,48.1,45.6,29.89,WNW,283,0.0,1.0,91,0.00,,OVC008,0.28,VWS V14.01,2013-02-12 22:06:00,
2013-02-12 16:11:00,48.0,45.2,29.89,WNW,283,0.0,2.0,90,0.00,,OVC008,0.28,VWS V14.01,2013-02-12 22:11:00,
2013-02-12 16:16:00,48.1,45.3,29.89,NW,325,0.0,1.0,90,0.00,,OVC008,0.28,VWS V14.01,2013-02-12 22:16:00,
2013-02-12 16:21:00,48.1,45.3,29.89,NW,325,0.0,1.0,90,0.00,,OVC008,0.28,VWS V14.01,2013-02-12 22:21:00,
2013-02-12 16:26:00,48.3,45.2,29.89,West,279,0.0,1.0,89,0.00,,OVC008,0.28,VWS V14.01,2013-02-12 22:26:00,
2013-02-12 16:31:00,48.3,45.2,29.88,NNE,32,0.0,2.0,89,0.00,,OVC008,0.28,VWS V14.01,2013-02-12 22:31:00,
2013-02-12 16:36:00,48.2,45.4,29.89,NNE,32,0.0,1.0,90,0.00,,OVC008,0.28,VWS V14.01,2013-02-12 22:36:00,
2013-02-12 16:41:00,48.2,45.4,29.88,NNW,333,0.0,1.0,90,0.00,,OVC008,0.28,VWS V14.01,2013-02-12 22:41:00,
2013-02-12 16:46:00,48.3,45.5,29.89,WNW,290,0.0,1.0,90,0.00,,OVC008,0.28,VWS V14.01,2013-02-12 22:46:00,
2013-02-12 16:51:00,48.3,45.5,29.89,WNW,290,0.0,1.0,90,0.00,,OVC008,0.28,VWS V14.01,2013-02-12 22:51:00,
2013-02-12 16:56:00,48.3,45.2,29.89,WNW,283,0.0,1.0,89,0.00,,OVC008,0.28,VWS V14.01,2013-02-12 22:56:00,
2013-02-12 17:01:00,48.1,45.0,29.89,West,276,0.0,1.0,89,0.00,,OVC018,0.28,VWS V14.01,2013-02-12 23:01:00,
2013-02-12 17:06:00,48.1,45.0,29.89,West,261,1.0,1.0,89,0.00,,OVC018,0.28,VWS V14.01,2013-02-12 23:06:00,
2013-02-12 17:11:00,48.1,45.0,29.89,West,268,0.0,2.0,89,0.00,,OVC018,0.28,VWS V14.01,2013-02-12 23:11:00,
2013-02-12 17:16:00,48.1,45.0,29.89,WNW,283,0.0,2.0,89,0.00,,OVC018,0.28,VWS V14.01,2013-02-12 23:16:00,
2013-02-12 17:21:00,48.1,45.0,29.89,NNW,333,0.0,2.0,89,0.00,,OVC018,0.28,VWS V14.01,2013-02-12 23:21:00,
2013-02-12 17:26:00,47.9,44.8,29.89,NW,306,0.0,1.0,89,0.00,,OVC018,0.28,VWS V14.01,2013-02-12 23:26:00,
2013-02-12 17:31:00,47.8,44.7,29.89,NNE,22,1.0,1.0,89,0.00,,OVC018,0.28,VWS V14.01,2013-02-12 23:31:00,
2013-02-12 17:36:00,47.7,44.3,29.89,NE,34,0.0,2.0,88,0.00,,OVC018,0.28,VWS V14.01,2013-02-12 23:36:00,
2013-02-12 17:41:00,47.6,44.5,29.89,NNE,18,0.0,0.0,89,0.00,,OVC018,0.28,VWS V14.01,2013-02-12 23:41:00,
2013-02-12 17:46:00,47.4,44.0,29.89,WNW,296,0.0,0.0,88,0.00,,OVC018,0.28,VWS V14.01,2013-02-12 23:46:00,
2013-02-12 17:51:00,47.2,44.1,29.89,ESE,110,0.0,0.0,89,0.00,,OVC018,0.28,VWS V14.01,2013-02-12 23:51:00,
2013-02-12 17:56:00,47.1,44.0,29.90,WSW,243,0.0,0.0,89,0.00,,OVC018,0.28,VWS V14.01,2013-02-12 23:56:00,
2013-02-12 18:01:00,47.0,43.9,29.91,West,272,0.0,1.0,89,0.00,,OVC034,0.28,VWS V14.01,2013-02-13 00:01:00,
2013-02-12 18:06:00,47.0,43.9,29.91,West,273,0.0,0.0,89,0.00,,OVC034,0.28,VWS V14.01,2013-02-13 00:06:00,
2013-02-12 18:11:00,47.1,44.0,29.91,WSW,238,0.0,0.0,89,0.00,,OVC034,0.28,VWS V14.01,2013-02-13 00:11:00,
2013-02-12 18:16:00,47.0,43.9,29.91,West,259,0.0,0.0,89,0.00,,OVC034,0.28,VWS V14.01,2013-02-13 00:16:00,
2013-02-12 18:21:00,46.8,43.7,29.91,WNW,284,1.0,1.0,89,0.00,,OVC034,0.28,VWS V14.01,2013-02-13 00:21:00,
2013-02-12 18:26:00,46.7,43.6,29.92,NE,43,2.0,2.0,89,0.00,,OVC034,0.28,VWS V14.01,2013-02-13 00:26:00,
2013-02-12 18:31:00,46.6,43.5,29.92,NNW,346,0.0,0.0,89,0.00,,OVC034,0.28,VWS V14.01,2013-02-13 00:31:00,
2013-02-12 18:36:00,46.5,43.7,29.92,NNW,328,0.0,1.0,90,0.00,,OVC034,0.28,VWS V14.01,2013-02-13 00:36:00,
2013-02-12 18:41:00,46.5,43.4,29.93,NE,35,0.0,2.0,89,0.00,,OVC034,0.28,VWS V14.01,2013-02-13 00:41:00,
2013-02-12 18:46:00,46.5,43.4,29.93,North,350,0.0,0.0,89,0.00,,OVC034,0.28,VWS V14.01,2013-02-13 00:46:00,
2013-02-12 18:51:00,46.6,43.5,29.93,West,276,0.0,1.0,89,0.00,,OVC034,0.28,VWS V14.01,2013-02-13 00:51:00,
2013-02-12 18:56:00,46.5,43.4,29.93,NNW,344,0.0,0.0,89,0.00,,OVC034,0.28,VWS V14.01,2013-02-13 00:56:00,
2013-02-12 19:01:00,46.5,43.4,29.93,NNW,330,0.0,0.0,89,0.00,,OVC037,0.28,VWS V14.01,2013-02-13 01:01:00,
2013-02-12 19:06:00,46.3,43.2,29.93,NNE,17,0.0,0.0,89,0.00,,OVC037,0.28,VWS V14.01,2013-02-13 01:06:00,
2013-02-12 19:11:00,46.1,43.0,29.94,North,351,0.0,0.0,89,0.00,,OVC037,0.28,VWS V14.01,2013-02-13 01:11:00,
2013-02-12 19:16:00,46.0,43.2,29.94,NW,314,0.0,0.0,90,0.00,,OVC037,0.28,VWS V14.01,2013-02-13 01:16:00,
2013-02-12 19:21:00,46.0,43.2,29.94,WNW,283,0.0,0.0,90,0.00,,OVC037,0.28,VWS V14.01,2013-02-13 01:21:00,
2013-02-12 19:26:00,46.1,43.3,29.95,West,276,0.0,0.0,90,0.00,,OVC037,0.28,VWS V14.01,2013-02-13 01:26:00,
2013-02-12 19:31:00,46.3,43.5,29.95,NW,310,0.0,0.0,90,0.00,,OVC037,0.28,VWS V14.01,2013-02-13 01:31:00,
2013-02-12 19:36:00,46.4,43.3,29.95,ENE,63,0.0,0.0,89,0.00,,OVC037,0.28,VWS V14.01,2013-02-13 01:36:00,
2013-02-12 19:41:00,46.4,43.3,29.95,NW,313,0.0,0.0,89,0.00,,OVC037,0.28,VWS V14.01,2013-02-13 01:41:00,
2013-02-12 19:46:00,46.5,43.4,29.96,North,350,1.0,1.0,89,0.00,,OVC037,0.28,VWS V14.01,2013-02-13 01:46:00,
2013-02-12 19:51:00,46.5,43.4,29.96,West,281,0.0,0.0,89,0.00,,OVC037,0.28,VWS V14.01,2013-02-13 01:51:00,
2013-02-12 19:56:00,46.5,43.4,29.96,NNW,327,0.0,0.0,89,0.00,,OVC037,0.28,VWS V14.01,2013-02-13 01:56:00,
2013-02-12 20:01:00,46.5,43.1,29.96,NNW,348,0.0,1.0,88,0.00,,BKN042,0.28,VWS V14.01,2013-02-13 02:01:00,
2013-02-12 20:06:00,46.4,43.0,29.96,WNW,299,0.0,0.0,88,0.00,,BKN042,0.28,VWS V14.01,2013-02-13 02:06:00,
2013-02-12 20:11:00,46.3,43.0,29.96,NW,308,0.0,0.0,88,0.00,,BKN042,0.28,VWS V14.01,2013-02-13 02:11:00,
2013-02-12 20:16:00,46.3,43.2,29.97,WNW,298,1.0,1.0,89,0.00,,BKN042,0.28,VWS V14.01,2013-02-13 02:16:00,
2013-02-12 20:21:00,46.3,43.2,29.97,NNE,22,0.0,0.0,89,0.00,,BKN042,0.28,VWS V14.01,2013-02-13 02:21:00,
2013-02-12 20:26:00,46.2,43.1,29.97,NW,317,0.0,0.0,89,0.00,,BKN042,0.28,VWS V14.01,2013-02-13 02:26:00,
2013-02-12 20:31:00,46.1,43.0,29.97,WNW,283,0.0,1.0,89,0.00,,BKN042,0.28,VWS V14.01,2013-02-13 02:31:00,
2013-02-12 20:36:00,46.1,43.0,29.97,ENE,73,0.0,0.0,89,0.00,,BKN042,0.28,VWS V14.01,2013-02-13 02:36:00,
2013-02-12 20:41:00,46.1,43.0,29.97,North,360,0.0,0.0,89,0.00,,BKN042,0.28,VWS V14.01,2013-02-13 02:41:00,
2013-02-12 20:46:00,46.1,43.0,29.97,ENE,59,0.0,0.0,89,0.00,,BKN042,0.28,VWS V14.01,2013-02-13 02:46:00,
2013-02-12 20:51:00,46.1,43.3,29.97,West,273,0.0,0.0,90,0.00,,BKN042,0.28,VWS V14.01,2013-02-13 02:51:00,
2013-02-12 20:56:00,46.1,43.3,29.98,West,280,0.0,1.0,90,0.00,,BKN042,0.28,VWS V14.01,2013-02-13 02:56:00,
2013-02-12 21:01:00,46.0,43.2,29.98,NW,311,0.0,0.0,90,0.00,,-RA,0.28,VWS V14.01,2013-02-13 03:01:00,
2013-02-12 21:06:00,46.0,43.2,29.98,NNE,30,1.0,3.0,90,0.00,,-RA,0.28,VWS V14.01,2013-02-13 03:06:00,
2013-02-12 21:11:00,45.7,42.9,29.98,West,265,1.0,1.0,90,0.00,,-RA,0.28,VWS V14.01,2013-02-13 03:11:00,
2013-02-12 21:16:00,45.5,43.0,29.98,West,279,2.0,2.0,91,0.00,,-RA,0.28,VWS V14.01,2013-02-13 03:16:00,
2013-02-12 21:21:00,45.3,43.1,29.99,WNW,303,2.0,4.0,92,0.00,,-RA,0.28,VWS V14.01,2013-02-13 03:21:00,
2013-02-12 21:26:00,45.2,43.0,29.99,North,360,0.0,3.0,92,0.00,,-RA,0.28,VWS V14.01,2013-02-13 03:26:00,
2013-02-12 21:31:00,45.0,43.1,29.99,NNE,28,1.0,2.0,93,0.00,,-RA,0.28,VWS V14.01,2013-02-13 03:31:00,
2013-02-12 21:36:00,44.9,42.7,30.00,NNE,22,1.0,1.0,92,0.00,,-RA,0.28,VWS V14.01,2013-02-13 03:36:00,
2013-02-12 21:41:00,44.8,42.6,30.00,SSE,166,0.0,1.0,92,0.00,,-RA,0.28,VWS V14.01,2013-02-13 03:41:00,
2013-02-12 21:46:00,44.7,42.5,30.00,West,273,2.0,4.0,92,0.00,,-RA,0.28,VWS V14.01,2013-02-13 03:46:00,
2013-02-12 21:51:00,44.3,41.8,30.00,WNW,294,2.0,3.0,91,0.01,,-RA,0.29,VWS V14.01,2013-02-13 03:51:00,
2013-02-12 21:56:00,44.1,41.7,30.01,NNW,329,1.0,2.0,91,0.01,,-RA,0.29,VWS V14.01,2013-02-13 03:56:00,
2013-02-12 22:01:00,43.9,41.5,30.01,NE,42,2.0,3.0,91,0.01,,-RA,0.29,VWS V14.01,2013-02-13 04:01:00,
2013-02-12 22:06:00,43.7,41.2,30.01,WNW,284,2.0,2.0,91,0.01,,-RA,0.29,VWS V14.01,2013-02-13 04:06:00,
2013-02-12 22:11:00,43.6,41.2,30.01,NW,306,3.0,4.0,91,0.01,,-RA,0.29,VWS V14.01,2013-02-13 04:11:00,
2013-02-12 22:16:00,43.5,41.0,30.01,SW,219,0.0,1.0,91,0.01,,-RA,0.29,VWS V14.01,2013-02-13 04:16:00,
2013-02-12 22:21:00,43.5,41.0,30.02,NW,315,1.0,1.0,91,0.01,,-RA,0.29,VWS V14.01,2013-02-13 04:21:00,
2013-02-12 22:26:00,43.4,40.7,30.02,NW,311,2.0,2.0,90,0.01,,-RA,0.29,VWS V14.01,2013-02-13 04:26:00,
2013-02-12 22:31:00,43.2,40.5,30.02,ENE,76,2.0,3.0,90,0.01,,-RA,0.29,VWS V14.01,2013-02-13 04:31:00,
2013-02-12 22:36:00,43.1,40.4,30.02,East,80,2.0,7.0,90,0.01,,-RA,0.29,VWS V14.01,2013-02-13 04:36:00,
2013-02-12 22:41:00,43.0,40.3,30.03,WNW,284,0.0,1.0,90,0.01,,-RA,0.29,VWS V14.01,2013-02-13 04:41:00,
2013-02-12 22:46:00,42.9,40.5,30.03,WNW,290,0.0,2.0,91,0.01,,-RA,0.29,VWS V14.01,2013-02-13 04:46:00,
2013-02-12 22:51:00,42.8,40.4,30.03,NNW,347,0.0,1.0,91,0.00,,-RA,0.29,VWS V14.01,2013-02-13 04:51:00,
2013-02-12 22:56:00,42.7,40.3,30.03,West,277,2.0,3.0,91,0.00,,-RA,0.29,VWS V14.01,2013-02-13 04:56:00,
2013-02-12 23:00:00,42.7,40.0,30.03,ENE,61,4.0,4.0,90,0.00,,-RA,0.29,VWS V14.01,2013-02-13 05:00:00,
2013-02-12 23:05:00,42.6,39.9,30.03,WNW,286,0.0,5.0,90,0.00,,-RA,0.29,VWS V14.01,2013-02-13 05:05:00,
2013-02-12 23:10:00,42.4,39.4,30.03,ENE,62,0.0,4.0,89,0.00,,-RA,0.29,VWS V14.01,2013-02-13 05:10:00,
2013-02-12 23:15:00,42.2,39.2,30.04,ENE,65,1.0,4.0,89,0.00,,-RA,0.29,VWS V14.01,2013-02-13 05:15:00,
2013-02-12 23:20:00,42.0,38.7,30.04,WNW,284,2.0,4.0,88,0.00,,-RA,0.29,VWS V14.01,2013-02-13 05:20:00,
2013-02-12 23:25:00,41.7,38.1,30.05,WNW,290,1.0,7.0,87,0.00,,-RA,0.29,VWS V14.01,2013-02-13 05:25:00,
2013-02-12 23:30:00,41.5,37.9,30.05,NNE,16,1.0,7.0,87,0.00,,-RA,0.29,VWS V14.01,2013-02-13 05:30:00,
2013-02-12 23:35:00,41.3,37.7,30.05,NNW,347,0.0,4.0,87,0.00,,-RA,0.29,VWS V14.01,2013-02-13 05:35:00,
2013-02-12 23:40:00,41.2,37.6,30.05,SSW,194,0.0,4.0,87,0.00,,-RA,0.29,VWS V14.01,2013-02-13 05:40:00,
2013-02-12 23:45:00,41.2,37.9,30.05,West,272,2.0,2.0,88,0.00,,-RA,0.29,VWS V14.01,2013-02-13 05:45:00,
2013-02-12 23:50:00,41.1,37.5,30.05,NE,55,3.0,5.0,87,0.00,,-RA,0.29,VWS V14.01,2013-02-13 05:50:00,
2013-02-12 23:55:00,40.9,37.3,30.05,SW,219,2.0,5.0,87,0.00,,-RA,0.29,VWS V14.01,2013-02-13 05:55:00,